Flag for Benin Weather past 2 weeks in Porto Novo, Benin

Now
91 °F

Scattered clouds.


Feels Like: 100 °F
Forecast: 80 / 89 °F
Wind: 6 mph from Southeast

Location: Cotonou Airport

Current Time: Feb 28, 2015 at 1:40:24 PM

Latest Report: Feb 28, 2015 at 1:00 PM


Visibility: N/A

Pressure: 29.83 "Hg

Humidity: 56%

Dew point: 73 °F

Location of Porto NovoLocation

Historic Weather in Porto Novo — Graph

°F

Porto Novo temperature yesterday

Maximum temperature yesterday: 86 °F (at 3:00 PM)
Minimum temperature yesterday: 81 °F (at 12:00 PM)
Average temperature yesterday: 83 °F

Past Weeks' High & Low Weather Summary

 TemperatureHumidityPressure
High90 °F (Feb 13, 12:00 PM)100% (Feb 19, 7:00 AM)29.92 "Hg (Feb 19, 7:00 AM)
Low73 °F (Feb 18, 4:00 PM)62% (Feb 27, 3:00 PM)29.71 "Hg (Feb 17, 4:00 PM)
Average83 °F81%29.80 "Hg
* Reported Feb 13 12:00 Noon — Feb 28 12:00 Noon, Porto Novo, Weather by CustomWeather, © 2015

Note: Actual official high and low records may vary slightly from our data, if they occured in-between our weather recording intervals... More about our weather records

Advertising

Porto Novo weather history for previous 24 hours

 ConditionsComfort  
Time TempWeatherWind HumidityBarometerVisibility
12:00 PM
Sat, Feb 28
90 °FScattered clouds.3 mph63%29.86 "HgN/A
11:00 AM86 °FScattered clouds.1 mph75%29.89 "HgN/A
10:00 AM82 °FScattered clouds.6 mph84%29.89 "Hg5 mi
9:00 AM81 °FScattered clouds.5 mph89%29.86 "Hg5 mi
8:00 AM79 °FPassing clouds.5 mph89%29.83 "Hg5 mi
7:00 AM77 °FPassing clouds.5 mph94%29.83 "Hg4 mi
6:00 AM79 °FPassing clouds.3 mph94%29.80 "Hg4 mi
5:00 AM79 °FPassing clouds.No wind94%29.80 "Hg4 mi
4:00 AM81 °FPassing clouds.1 mph89%29.80 "Hg6 mi
3:00 AM81 °FPassing clouds.1 mph89%29.80 "HgN/A
2:00 AM81 °FPassing clouds.2 mph89%29.83 "HgN/A
1:00 AM82 °FPassing clouds.8 mph84%29.86 "HgN/A
12:00 AM82 °FPassing clouds.10 mph84%29.86 "HgN/A
11:00 PM
Fri, Feb 27
82 °FPassing clouds.9 mph79%29.86 "HgN/A
10:00 PM82 °FPassing clouds.6 mph79%29.86 "HgN/A
9:00 PM82 °FPassing clouds.8 mph79%29.86 "HgN/A
8:00 PM82 °FPassing clouds.9 mph79%29.83 "HgN/A
7:00 PM82 °FPassing clouds.9 mph79%29.80 "HgN/A
6:00 PM84 °FScattered clouds.6 mph74%29.77 "HgN/A
5:00 PM84 °FScattered clouds.8 mph70%29.77 "HgN/A
4:00 PM86 °FScattered clouds.8 mph62%29.77 "HgN/A
3:00 PM86 °FScattered clouds.1 mph62%29.80 "HgN/A
2:00 PM84 °FThunderstorms. Partly sunny.6 mph66%29.80 "Hg5 mi
1:00 PM82 °FThunderstorms. Partly sunny.6 mph74%29.83 "Hg5 mi
Weather by CustomWeather, © 2015

See weather overviewHow to use our weather pages